GOES 8 [-]

Last updated on Jan. 18, 2020, 4:37 a.m. UTC

1 23051U 94022A   20017.23405779 -.00000078  00000-0  00000-0 0  9991
2 23051  12.3989  30.7516 0008582 302.4663 252.1491  0.98905737100951
UTC
Height (km)
Latitude
Longitude
Inclination
Orbital Period
UTC large
Height (km)
Speed (km/s)
/
Latitude / Longitude
Inclination (degrees)
Orbital Period (minutes)
Azimuth
Elevation
Range (km)
Doppler Factor
iOS Compass Heading
iOS Angle

Next 30 passes for location: Hong Kong

Rise time Rise Azimuth (degrees) Set time Set Azimuth (degrees) Duration Max altitude (degrees)

No matching passes for this satellites